Time,TemperatureF,DewpointF,PressureIn,WindDirection,WindDirectionDegrees,WindSpeedMPH,WindSpeedGustMPH,Humidity,HourlyPrecipIn,Conditions,Clouds,dailyrainin,SoftwareType,DateUTC
2013-05-17 00:01:00,54.3,44.0,29.83,North,360,0.0,7.0,68,0.00,,---,0.00,VWS V13.00,2013-05-17 04:01:00,
2013-05-17 00:06:00,54.1,43.4,29.83,North,355,1.0,7.0,67,0.00,,---,0.00,VWS V13.00,2013-05-17 04:06:00,
2013-05-17 00:11:00,54.1,43.8,29.83,NNW,327,0.0,4.0,68,0.00,,---,0.00,VWS V13.00,2013-05-17 04:11:00,
2013-05-17 00:16:00,53.9,43.6,29.84,NNW,339,4.0,5.0,68,0.00,,---,0.00,VWS V13.00,2013-05-17 04:16:00,
2013-05-17 00:21:00,53.7,43.4,29.84,NW,323,1.0,5.0,68,0.00,,---,0.00,VWS V13.00,2013-05-17 04:21:00,
2013-05-17 00:26:00,53.5,43.6,29.84,NW,321,1.0,5.0,69,0.00,,---,0.00,VWS V13.00,2013-05-17 04:26:00,
2013-05-17 00:31:00,53.3,43.8,29.84,NW,321,2.0,5.0,70,0.00,,---,0.00,VWS V13.00,2013-05-17 04:31:00,
2013-05-17 00:36:00,53.0,43.5,29.84,NW,321,0.0,5.0,70,0.00,,---,0.00,VWS V13.00,2013-05-17 04:36:00,
2013-05-17 00:41:00,52.7,43.2,29.84,NW,321,0.0,3.0,70,0.00,,---,0.00,VWS V13.00,2013-05-17 04:41:00,
2013-05-17 00:46:00,52.4,43.3,29.84,NW,321,1.0,3.0,71,0.00,,---,0.00,VWS V13.00,2013-05-17 04:46:00,
2013-05-17 00:51:00,52.2,43.5,29.84,NW,318,2.0,3.0,72,0.00,,---,0.00,VWS V13.00,2013-05-17 04:51:00,
2013-05-17 00:56:00,52.0,43.3,29.85,NW,318,0.0,3.0,72,0.00,,---,0.00,VWS V13.00,2013-05-17 04:56:00,
2013-05-17 01:01:00,51.9,43.2,29.85,NW,318,0.0,7.0,72,0.00,,---,0.00,VWS V13.00,2013-05-17 05:01:00,
2013-05-17 01:06:00,51.8,43.1,29.85,NW,318,0.0,7.0,72,0.00,,---,0.00,VWS V13.00,2013-05-17 05:06:00,
2013-05-17 01:11:00,51.8,43.4,29.85,NW,318,0.0,2.0,73,0.00,,---,0.00,VWS V13.00,2013-05-17 05:11:00,
2013-05-17 01:16:00,51.7,43.3,29.85,NW,317,0.0,4.0,73,0.00,,---,0.00,VWS V13.00,2013-05-17 05:16:00,
2013-05-17 01:21:00,51.7,43.3,29.85,NW,317,0.0,4.0,73,0.00,,---,0.00,VWS V13.00,2013-05-17 05:21:00,
2013-05-17 01:26:00,51.6,43.2,29.85,NW,317,0.0,4.0,73,0.00,,---,0.00,VWS V13.00,2013-05-17 05:26:00,
2013-05-17 01:31:00,51.5,43.1,29.85,NW,317,0.0,4.0,73,0.00,,---,0.00,VWS V13.00,2013-05-17 05:31:00,
2013-05-17 01:36:00,51.4,43.4,29.85,NW,317,0.0,4.0,74,0.00,,---,0.00,VWS V13.00,2013-05-17 05:36:00,
2013-05-17 01:41:00,51.2,43.2,29.85,NW,317,0.0,1.0,74,0.00,,---,0.00,VWS V13.00,2013-05-17 05:41:00,
2013-05-17 01:46:00,51.1,43.1,29.85,NW,317,0.0,2.0,74,0.00,,---,0.00,VWS V13.00,2013-05-17 05:46:00,
2013-05-17 01:51:00,51.0,43.4,29.85,NW,317,0.0,2.0,75,0.00,,---,0.00,VWS V13.00,2013-05-17 05:51:00,
2013-05-17 01:56:00,50.9,42.9,29.85,NW,317,0.0,3.0,74,0.00,,---,0.00,VWS V13.00,2013-05-17 05:56:00,
2013-05-17 02:01:00,50.9,43.3,29.86,NW,317,0.0,3.0,75,0.00,,---,0.00,VWS V13.00,2013-05-17 06:01:00,
2013-05-17 02:06:00,50.8,43.2,29.86,NW,317,1.0,3.0,75,0.00,,---,0.00,VWS V13.00,2013-05-17 06:06:00,
2013-05-17 02:11:00,50.8,43.2,29.86,NW,317,1.0,2.0,75,0.00,,---,0.00,VWS V13.00,2013-05-17 06:11:00,
2013-05-17 02:16:00,50.8,43.2,29.86,NW,317,3.0,3.0,75,0.00,,---,0.00,VWS V13.00,2013-05-17 06:16:00,
2013-05-17 02:21:00,50.7,43.1,29.86,NW,317,0.0,3.0,75,0.00,,---,0.00,VWS V13.00,2013-05-17 06:21:00,
2013-05-17 02:26:00,50.5,43.2,29.86,NW,317,0.0,3.0,76,0.00,,---,0.00,VWS V13.00,2013-05-17 06:26:00,
2013-05-17 02:31:00,50.3,43.0,29.86,NW,317,1.0,3.0,76,0.00,,---,0.00,VWS V13.00,2013-05-17 06:31:00,
2013-05-17 02:36:00,50.2,42.9,29.86,NW,317,0.0,3.0,76,0.00,,---,0.00,VWS V13.00,2013-05-17 06:36:00,
2013-05-17 02:41:00,50.0,42.7,29.86,NW,317,0.0,1.0,76,0.00,,---,0.00,VWS V13.00,2013-05-17 06:41:00,
2013-05-17 02:46:00,49.8,42.5,29.87,NW,317,0.0,1.0,76,0.00,,---,0.00,VWS V13.00,2013-05-17 06:46:00,
2013-05-17 02:51:00,49.7,42.5,29.87,NW,317,0.0,2.0,76,0.00,,---,0.00,VWS V13.00,2013-05-17 06:51:00,
2013-05-17 02:56:00,49.6,42.7,29.87,NW,317,0.0,2.0,77,0.00,,---,0.00,VWS V13.00,2013-05-17 06:56:00,
2013-05-17 03:01:00,49.5,42.9,29.87,NW,317,0.0,2.0,78,0.00,,---,0.00,VWS V13.00,2013-05-17 07:01:00,
2013-05-17 03:06:00,49.2,42.3,29.87,NW,317,1.0,2.0,77,0.00,,---,0.00,VWS V13.00,2013-05-17 07:06:00,
2013-05-17 03:11:00,49.1,42.2,29.87,NW,317,0.0,3.0,77,0.00,,---,0.00,VWS V13.00,2013-05-17 07:11:00,
2013-05-17 03:16:00,48.9,42.3,29.87,NW,317,2.0,3.0,78,0.00,,---,0.00,VWS V13.00,2013-05-17 07:16:00,
2013-05-17 03:21:00,48.7,42.2,29.87,WNW,300,1.0,4.0,78,0.00,,---,0.00,VWS V13.00,2013-05-17 07:21:00,
2013-05-17 03:26:00,48.6,42.1,29.88,WNW,301,0.0,4.0,78,0.00,,---,0.00,VWS V13.00,2013-05-17 07:26:00,
2013-05-17 03:31:00,48.7,41.8,29.88,WNW,299,0.0,4.0,77,0.00,,---,0.00,VWS V13.00,2013-05-17 07:31:00,
2013-05-17 03:36:00,48.7,41.8,29.88,WNW,299,0.0,4.0,77,0.00,,---,0.00,VWS V13.00,2013-05-17 07:36:00,
2013-05-17 03:41:00,48.6,41.7,29.88,WNW,302,0.0,4.0,77,0.00,,---,0.00,VWS V13.00,2013-05-17 07:41:00,
2013-05-17 03:46:00,48.4,41.9,29.89,WNW,302,0.0,4.0,78,0.00,,---,0.00,VWS V13.00,2013-05-17 07:46:00,
2013-05-17 03:51:00,48.3,42.1,29.89,NNW,329,0.0,4.0,79,0.00,,---,0.00,VWS V13.00,2013-05-17 07:51:00,
2013-05-17 03:56:00,48.2,41.7,29.89,NW,316,0.0,6.0,78,0.00,,---,0.00,VWS V13.00,2013-05-17 07:56:00,
2013-05-17 04:01:00,48.2,41.7,29.89,NNW,327,2.0,6.0,78,0.00,,---,0.00,VWS V13.00,2013-05-17 08:01:00,
2013-05-17 04:06:00,48.1,41.6,29.90,NW,324,0.0,6.0,78,0.00,,---,0.00,VWS V13.00,2013-05-17 08:06:00,
2013-05-17 04:11:00,48.1,41.6,29.90,NW,317,1.0,5.0,78,0.00,,---,0.00,VWS V13.00,2013-05-17 08:11:00,
2013-05-17 04:16:00,48.0,41.5,29.90,NW,317,1.0,7.0,78,0.00,,---,0.00,VWS V13.00,2013-05-17 08:16:00,
2013-05-17 04:21:00,47.9,41.4,29.90,NW,319,1.0,7.0,78,0.00,,---,0.00,VWS V13.00,2013-05-17 08:21:00,
2013-05-17 04:26:00,47.7,41.2,29.90,NW,318,0.0,7.0,78,0.00,,---,0.00,VWS V13.00,2013-05-17 08:26:00,
2013-05-17 04:31:00,47.5,41.3,29.90,NW,318,0.0,7.0,79,0.00,,---,0.00,VWS V13.00,2013-05-17 08:31:00,
2013-05-17 04:36:00,47.3,41.1,29.91,NW,318,0.0,7.0,79,0.00,,---,0.00,VWS V13.00,2013-05-17 08:36:00,
2013-05-17 04:41:00,47.0,41.2,29.91,NW,318,0.0,3.0,80,0.00,,---,0.00,VWS V13.00,2013-05-17 08:41:00,
2013-05-17 04:46:00,46.8,41.0,29.91,NW,313,0.0,4.0,80,0.00,,---,0.00,VWS V13.00,2013-05-17 08:46:00,
2013-05-17 04:51:00,46.5,41.0,29.91,NW,313,0.0,4.0,81,0.00,,---,0.00,VWS V13.00,2013-05-17 08:51:00,
2013-05-17 04:56:00,46.2,40.7,29.91,NW,313,1.0,4.0,81,0.00,,---,0.00,VWS V13.00,2013-05-17 08:56:00,
2013-05-17 05:01:00,46.0,40.8,29.92,NW,314,1.0,4.0,82,0.00,,---,0.00,VWS V13.00,2013-05-17 09:01:00,
2013-05-17 05:06:00,45.8,40.6,29.91,NW,313,0.0,4.0,82,0.00,,---,0.00,VWS V13.00,2013-05-17 09:06:00,
2013-05-17 05:11:00,45.6,40.7,29.91,West,281,0.0,5.0,83,0.00,,---,0.00,VWS V13.00,2013-05-17 09:11:00,
2013-05-17 05:16:00,45.5,40.7,29.91,West,281,0.0,5.0,83,0.00,,---,0.00,VWS V13.00,2013-05-17 09:16:00,
2013-05-17 05:21:00,45.5,40.7,29.92,NNW,336,2.0,6.0,83,0.00,,---,0.00,VWS V13.00,2013-05-17 09:21:00,
2013-05-17 05:26:00,45.6,40.4,29.92,NW,305,2.0,7.0,82,0.00,,---,0.00,VWS V13.00,2013-05-17 09:26:00,
2013-05-17 05:31:00,45.7,40.2,29.93,NW,306,1.0,7.0,81,0.00,,---,0.00,VWS V13.00,2013-05-17 09:31:00,
2013-05-17 05:36:00,45.8,40.3,29.93,WNW,303,0.0,7.0,81,0.00,,---,0.00,VWS V13.00,2013-05-17 09:36:00,
2013-05-17 05:41:00,45.8,40.3,29.93,WNW,303,0.0,3.0,81,0.00,,---,0.00,VWS V13.00,2013-05-17 09:41:00,
2013-05-17 05:46:00,45.7,39.9,29.93,WNW,299,0.0,5.0,80,0.00,,---,0.00,VWS V13.00,2013-05-17 09:46:00,
2013-05-17 05:51:00,45.6,39.8,29.93,WNW,298,0.0,5.0,80,0.00,,---,0.00,VWS V13.00,2013-05-17 09:51:00,
2013-05-17 05:56:00,45.6,39.8,29.94,WNW,298,0.0,5.0,80,0.00,,---,0.00,VWS V13.00,2013-05-17 09:56:00,
2013-05-17 06:01:00,45.6,39.8,29.94,WNW,298,1.0,5.0,80,0.00,,---,0.00,VWS V13.00,2013-05-17 10:01:00,
2013-05-17 06:06:00,45.6,39.8,29.95,WNW,298,0.0,5.0,80,0.00,,---,0.00,VWS V13.00,2013-05-17 10:06:00,
2013-05-17 06:11:00,45.6,39.8,29.95,WNW,294,2.0,4.0,80,0.00,,---,0.00,VWS V13.00,2013-05-17 10:11:00,
2013-05-17 06:16:00,45.7,39.9,29.95,NW,313,3.0,7.0,80,0.00,,---,0.00,VWS V13.00,2013-05-17 10:16:00,
2013-05-17 06:21:00,45.9,39.8,29.95,WNW,303,0.0,7.0,79,0.00,,---,0.00,VWS V13.00,2013-05-17 10:21:00,
2013-05-17 06:26:00,46.1,39.6,29.96,WNW,290,3.0,7.0,78,0.00,,---,0.00,VWS V13.00,2013-05-17 10:26:00,
2013-05-17 06:31:00,46.3,39.8,29.96,NNW,331,9.0,9.0,78,0.00,,---,0.00,VWS V13.00,2013-05-17 10:31:00,
2013-05-17 06:36:00,46.5,39.7,29.96,WNW,285,2.0,9.0,77,0.00,,---,0.00,VWS V13.00,2013-05-17 10:36:00,
2013-05-17 06:41:00,46.6,39.8,29.97,WNW,283,0.0,3.0,77,0.00,,---,0.00,VWS V13.00,2013-05-17 10:41:00,
2013-05-17 06:46:00,46.7,39.9,29.97,NNW,333,0.0,5.0,77,0.00,,---,0.00,VWS V13.00,2013-05-17 10:46:00,
2013-05-17 06:51:00,46.8,40.0,29.97,NNW,330,0.0,5.0,77,0.00,,---,0.00,VWS V13.00,2013-05-17 10:51:00,
2013-05-17 06:56:00,47.0,39.8,29.98,NW,313,0.0,5.0,76,0.00,,---,0.00,VWS V13.00,2013-05-17 10:56:00,
2013-05-17 07:01:00,47.2,40.0,29.98,NW,307,1.0,5.0,76,0.00,,---,0.00,VWS V13.00,2013-05-17 11:01:00,
2013-05-17 07:06:00,47.4,40.6,29.98,West,260,0.0,5.0,77,0.00,,---,0.00,VWS V13.00,2013-05-17 11:06:00,
2013-05-17 07:11:00,47.5,40.3,29.98,West,265,3.0,5.0,76,0.00,,---,0.00,VWS V13.00,2013-05-17 11:11:00,
2013-05-17 07:16:00,47.8,40.6,29.98,West,281,0.0,6.0,76,0.00,,---,0.00,VWS V13.00,2013-05-17 11:16:00,
2013-05-17 07:21:00,47.9,40.7,29.99,WNW,298,0.0,8.0,76,0.00,,---,0.00,VWS V13.00,2013-05-17 11:21:00,
2013-05-17 07:26:00,48.2,40.7,29.99,NW,317,1.0,8.0,75,0.00,,---,0.00,VWS V13.00,2013-05-17 11:26:00,
2013-05-17 07:30:00,48.4,40.5,29.99,NW,313,3.0,8.0,74,0.00,,---,0.00,VWS V13.00,2013-05-17 11:30:00,
2013-05-17 07:35:00,48.7,40.5,29.99,NNW,332,6.0,8.0,73,0.00,,---,0.00,VWS V13.00,2013-05-17 11:35:00,
2013-05-17 07:40:00,49.0,40.7,30.00,WNW,295,2.0,6.0,73,0.00,,---,0.00,VWS V13.00,2013-05-17 11:40:00,
2013-05-17 07:45:00,49.2,40.9,30.00,West,273,5.0,9.0,73,0.00,,---,0.00,VWS V13.00,2013-05-17 11:45:00,
2013-05-17 07:50:00,49.5,40.9,30.00,WNW,302,0.0,9.0,72,0.00,,---,0.00,VWS V13.00,2013-05-17 11:50:00,
2013-05-17 07:55:00,49.8,41.2,30.01,WNW,283,4.0,9.0,72,0.00,,---,0.00,VWS V13.00,2013-05-17 11:55:00,
2013-05-17 08:00:00,50.1,41.4,30.01,NW,322,2.0,9.0,72,0.00,,---,0.00,VWS V13.00,2013-05-17 12:00:00,
2013-05-17 08:05:00,50.6,41.6,30.01,NW,321,0.0,9.0,71,0.00,,---,0.00,VWS V13.00,2013-05-17 12:05:00,
2013-05-17 08:10:00,51.1,41.7,30.01,WNW,296,1.0,5.0,70,0.00,,---,0.00,VWS V13.00,2013-05-17 12:10:00,
2013-05-17 08:15:00,51.4,42.3,30.01,NNW,348,0.0,6.0,71,0.00,,---,0.00,VWS V13.00,2013-05-17 12:15:00,
2013-05-17 08:20:00,51.7,42.2,30.01,NW,313,0.0,6.0,70,0.00,,---,0.00,VWS V13.00,2013-05-17 12:20:00,
2013-05-17 08:25:00,52.0,42.2,30.01,NNW,327,0.0,7.0,69,0.00,,---,0.00,VWS V13.00,2013-05-17 12:25:00,
2013-05-17 08:30:00,52.2,42.0,30.01,West,275,0.0,7.0,68,0.00,,---,0.00,VWS V13.00,2013-05-17 12:30:00,
2013-05-17 08:35:00,52.6,42.7,30.01,North,355,5.0,7.0,69,0.00,,---,0.00,VWS V13.00,2013-05-17 12:35:00,
2013-05-17 08:40:00,52.8,42.5,30.01,NW,309,0.0,7.0,68,0.00,,---,0.00,VWS V13.00,2013-05-17 12:40:00,
2013-05-17 08:45:00,53.1,42.8,30.01,NW,313,0.0,7.0,68,0.00,,---,0.00,VWS V13.00,2013-05-17 12:45:00,
2013-05-17 08:50:00,53.5,43.2,30.01,NW,321,0.0,7.0,68,0.00,,---,0.00,VWS V13.00,2013-05-17 12:50:00,
2013-05-17 08:55:00,54.0,43.3,30.01,West,279,3.0,9.0,67,0.00,,---,0.00,VWS V13.00,2013-05-17 12:55:00,
2013-05-17 09:00:00,54.4,43.3,30.01,NNW,336,0.0,10.0,66,0.00,,---,0.00,VWS V13.00,2013-05-17 13:00:00,
2013-05-17 09:05:00,54.8,43.3,30.01,NW,306,2.0,11.0,65,0.00,,---,0.00,VWS V13.00,2013-05-17 13:05:00,
2013-05-17 09:10:00,55.3,43.8,30.02,North,355,2.0,6.0,65,0.00,,---,0.00,VWS V13.00,2013-05-17 13:10:00,
2013-05-17 09:15:00,55.6,44.0,30.02,NNW,338,3.0,6.0,65,0.00,,---,0.00,VWS V13.00,2013-05-17 13:15:00,
2013-05-17 09:20:00,55.6,43.6,30.02,NW,310,0.0,12.0,64,0.00,,---,0.00,VWS V13.00,2013-05-17 13:20:00,
2013-05-17 09:25:00,55.5,44.3,30.02,NW,306,0.0,12.0,66,0.00,,---,0.00,VWS V13.00,2013-05-17 13:25:00,
2013-05-17 09:30:00,55.9,44.3,30.02,NNW,342,2.0,13.0,65,0.00,,---,0.00,VWS V13.00,2013-05-17 13:30:00,
2013-05-17 09:35:00,56.1,44.1,30.02,NNW,348,9.0,14.0,64,0.00,,---,0.00,VWS V13.00,2013-05-17 13:35:00,
2013-05-17 09:40:00,56.2,43.8,30.02,NW,315,2.0,14.0,63,0.00,,---,0.00,VWS V13.00,2013-05-17 13:40:00,
2013-05-17 09:45:00,56.8,44.3,30.02,NW,322,0.0,14.0,63,0.00,,---,0.00,VWS V13.00,2013-05-17 13:45:00,
2013-05-17 09:50:00,57.1,44.2,30.02,WNW,285,2.0,14.0,62,0.00,,---,0.00,VWS V13.00,2013-05-17 13:50:00,
2013-05-17 09:55:00,57.4,44.1,30.02,NNW,348,9.0,14.0,61,0.00,,---,0.00,VWS V13.00,2013-05-17 13:55:00,
2013-05-17 10:00:00,57.5,44.2,30.02,NNE,19,0.0,14.0,61,0.00,,---,0.00,VWS V13.00,2013-05-17 14:00:00,
2013-05-17 10:05:00,57.3,43.5,30.03,North,349,1.0,14.0,60,0.00,,---,0.00,VWS V13.00,2013-05-17 14:05:00,
2013-05-17 10:10:00,57.2,44.7,30.03,North,349,2.0,11.0,63,0.00,,---,0.00,VWS V13.00,2013-05-17 14:10:00,
2013-05-17 10:15:00,57.5,43.7,30.03,NW,305,3.0,11.0,60,0.00,,---,0.00,VWS V13.00,2013-05-17 14:15:00,
2013-05-17 10:20:00,58.1,43.9,30.03,North,355,0.0,11.0,59,0.00,,---,0.00,VWS V13.00,2013-05-17 14:20:00,
2013-05-17 10:25:00,58.8,43.6,30.03,North,355,1.0,12.0,57,0.00,,---,0.00,VWS V13.00,2013-05-17 14:25:00,
2013-05-17 10:30:00,59.0,43.8,30.04,North,349,3.0,12.0,57,0.00,,---,0.00,VWS V13.00,2013-05-17 14:30:00,
2013-05-17 10:35:00,59.0,43.3,30.04,WNW,290,6.0,12.0,56,0.00,,---,0.00,VWS V13.00,2013-05-17 14:35:00,
2013-05-17 10:40:00,59.0,43.3,30.04,NW,323,1.0,7.0,56,0.00,,---,0.00,VWS V13.00,2013-05-17 14:40:00,
2013-05-17 10:45:00,59.0,43.8,30.04,WNW,301,1.0,12.0,57,0.00,,---,0.00,VWS V13.00,2013-05-17 14:45:00,
2013-05-17 10:50:00,58.3,43.2,30.04,NW,323,2.0,12.0,57,0.00,,---,0.00,VWS V13.00,2013-05-17 14:50:00,
2013-05-17 10:55:00,57.4,42.8,30.05,NW,310,0.0,12.0,58,0.00,,---,0.00,VWS V13.00,2013-05-17 14:55:00,
2013-05-17 11:00:00,57.1,42.9,30.05,NNW,327,4.0,12.0,59,0.00,,---,0.00,VWS V13.00,2013-05-17 15:00:00,
2013-05-17 11:05:00,56.8,43.1,30.05,NNW,344,6.0,13.0,60,0.00,,---,0.00,VWS V13.00,2013-05-17 15:05:00,
2013-05-17 11:10:00,56.7,43.0,30.05,West,277,5.0,10.0,60,0.00,,---,0.00,VWS V13.00,2013-05-17 15:10:00,
2013-05-17 11:15:00,57.6,44.7,30.06,NW,318,2.0,15.0,62,0.00,,---,0.00,VWS V13.00,2013-05-17 15:15:00,
2013-05-17 11:20:00,59.0,43.8,30.06,NW,317,3.0,15.0,57,0.00,,---,0.00,VWS V13.00,2013-05-17 15:20:00,
2013-05-17 11:25:00,59.2,43.1,30.06,North,9,0.0,15.0,55,0.00,,---,0.00,VWS V13.00,2013-05-17 15:25:00,
2013-05-17 11:30:00,59.0,43.8,30.05,WNW,295,1.0,15.0,57,0.00,,---,0.00,VWS V13.00,2013-05-17 15:30:00,
2013-05-17 11:35:00,58.0,42.9,30.06,WNW,303,1.0,15.0,57,0.00,,---,0.00,VWS V13.00,2013-05-17 15:35:00,
2013-05-17 11:40:00,58.1,43.4,30.05,WNW,296,4.0,9.0,58,0.00,,---,0.00,VWS V13.00,2013-05-17 15:40:00,
2013-05-17 11:45:00,58.6,43.4,30.06,WNW,286,1.0,9.0,57,0.00,,---,0.00,VWS V13.00,2013-05-17 15:45:00,
2013-05-17 11:50:00,59.4,44.6,30.05,WNW,297,0.0,9.0,58,0.00,,---,0.00,VWS V13.00,2013-05-17 15:50:00,
2013-05-17 11:55:00,60.2,44.0,30.06,NNW,344,0.0,10.0,55,0.00,,---,0.00,VWS V13.00,2013-05-17 15:55:00,
2013-05-17 12:00:00,61.0,44.7,30.06,West,261,6.0,10.0,55,0.00,,---,0.00,VWS V13.00,2013-05-17 16:00:00,
2013-05-17 12:05:00,61.0,43.8,30.06,West,276,1.0,11.0,53,0.00,,---,0.00,VWS V13.00,2013-05-17 16:05:00,
2013-05-17 12:10:00,60.8,43.1,30.06,NW,318,12.0,12.0,52,0.00,,---,0.00,VWS V13.00,2013-05-17 16:10:00,
2013-05-17 12:15:00,61.6,43.8,30.06,NE,40,2.0,13.0,52,0.00,,---,0.00,VWS V13.00,2013-05-17 16:15:00,
2013-05-17 12:20:00,62.3,42.9,30.06,NNW,343,3.0,14.0,49,0.00,,---,0.00,VWS V13.00,2013-05-17 16:20:00,
2013-05-17 12:25:00,62.6,43.7,30.05,WNW,293,1.0,14.0,50,0.00,,---,0.00,VWS V13.00,2013-05-17 16:25:00,
2013-05-17 12:30:00,62.6,42.7,30.05,NNW,346,3.0,14.0,48,0.00,,---,0.00,VWS V13.00,2013-05-17 16:30:00,
2013-05-17 12:35:00,62.8,43.4,30.05,NW,315,2.0,14.0,49,0.00,,---,0.00,VWS V13.00,2013-05-17 16:35:00,
2013-05-17 12:40:00,63.1,43.7,30.05,WNW,288,0.0,7.0,49,0.00,,---,0.00,VWS V13.00,2013-05-17 16:40:00,
2013-05-17 12:45:00,63.0,43.6,30.05,NNW,328,5.0,7.0,49,0.00,,---,0.00,VWS V13.00,2013-05-17 16:45:00,
2013-05-17 12:50:00,63.3,44.4,30.05,NNW,344,1.0,7.0,50,0.00,,---,0.00,VWS V13.00,2013-05-17 16:50:00,
2013-05-17 12:55:00,63.9,44.9,30.05,NNW,342,1.0,7.0,50,0.00,,---,0.00,VWS V13.00,2013-05-17 16:55:00,
2013-05-17 13:00:00,64.2,43.6,30.05,WNW,299,1.0,11.0,47,0.00,,---,0.00,VWS V13.00,2013-05-17 17:00:00,
2013-05-17 13:05:00,64.2,43.0,30.05,NNW,344,4.0,11.0,46,0.00,,---,0.00,VWS V13.00,2013-05-17 17:05:00,
2013-05-17 13:10:00,64.4,43.8,30.05,NNW,344,8.0,9.0,47,0.00,,---,0.00,VWS V13.00,2013-05-17 17:10:00,
2013-05-17 13:15:00,63.8,42.6,30.05,NW,312,1.0,11.0,46,0.00,,---,0.00,VWS V13.00,2013-05-17 17:15:00,
2013-05-17 13:20:00,63.6,43.0,30.05,ENE,63,4.0,11.0,47,0.00,,---,0.00,VWS V13.00,2013-05-17 17:20:00,
2013-05-17 13:25:00,63.4,43.9,30.06,NNW,348,0.0,11.0,49,0.00,,---,0.00,VWS V13.00,2013-05-17 17:25:00,
2013-05-17 13:30:00,63.9,44.9,30.06,WNW,298,2.0,11.0,50,0.00,,---,0.00,VWS V13.00,2013-05-17 17:30:00,
2013-05-17 13:35:00,64.6,44.5,30.05,WNW,303,0.0,11.0,48,0.00,,---,0.00,VWS V13.00,2013-05-17 17:35:00,
2013-05-17 13:40:00,65.0,44.8,30.05,WNW,288,4.0,6.0,48,0.00,,---,0.00,VWS V13.00,2013-05-17 17:40:00,
2013-05-17 13:45:00,65.1,43.3,30.06,NNW,327,3.0,8.0,45,0.00,,---,0.00,VWS V13.00,2013-05-17 17:45:00,
2013-05-17 13:50:00,65.1,43.3,30.06,NW,320,0.0,13.0,45,0.00,,---,0.00,VWS V13.00,2013-05-17 17:50:00,
2013-05-17 13:55:00,65.6,43.7,30.06,NNW,344,2.0,13.0,45,0.00,,---,0.00,VWS V13.00,2013-05-17 17:55:00,
2013-05-17 14:00:00,65.8,42.1,30.06,WNW,285,4.0,13.0,42,0.00,,---,0.00,VWS V13.00,2013-05-17 18:00:00,
2013-05-17 14:05:00,65.4,42.3,30.06,NW,323,1.0,13.0,43,0.00,,---,0.00,VWS V13.00,2013-05-17 18:05:00,
2013-05-17 14:10:00,65.3,42.2,30.06,NNE,32,1.0,9.0,43,0.00,,---,0.00,VWS V13.00,2013-05-17 18:10:00,
2013-05-17 14:15:00,65.8,42.7,30.06,NNE,15,2.0,9.0,43,0.00,,---,0.00,VWS V13.00,2013-05-17 18:15:00,
2013-05-17 14:20:00,66.1,43.0,30.07,ENE,69,0.0,12.0,43,0.00,,---,0.00,VWS V13.00,2013-05-17 18:20:00,
2013-05-17 14:25:00,66.0,42.3,30.06,NNW,327,2.0,12.0,42,0.00,,---,0.00,VWS V13.00,2013-05-17 18:25:00,
2013-05-17 14:30:00,66.2,42.5,30.06,WNW,303,3.0,12.0,42,0.00,,---,0.00,VWS V13.00,2013-05-17 18:30:00,
2013-05-17 14:35:00,66.4,43.8,30.06,NW,321,1.0,12.0,44,0.00,,---,0.00,VWS V13.00,2013-05-17 18:35:00,
2013-05-17 14:40:00,66.3,43.2,30.07,WNW,295,3.0,7.0,43,0.00,,---,0.00,VWS V13.00,2013-05-17 18:40:00,
2013-05-17 14:45:00,66.1,43.0,30.07,NW,311,2.0,9.0,43,0.00,,---,0.00,VWS V13.00,2013-05-17 18:45:00,
2013-05-17 14:50:00,66.0,42.3,30.07,NW,315,2.0,9.0,42,0.00,,---,0.00,VWS V13.00,2013-05-17 18:50:00,
2013-05-17 14:55:00,65.9,42.8,30.07,WNW,300,3.0,9.0,43,0.00,,---,0.00,VWS V13.00,2013-05-17 18:55:00,
2013-05-17 15:00:00,65.8,40.8,30.07,WNW,298,4.0,13.0,40,0.00,,---,0.00,VWS V13.00,2013-05-17 19:00:00,
2013-05-17 15:05:00,65.5,41.2,30.07,North,5,1.0,13.0,41,0.00,,---,0.00,VWS V13.00,2013-05-17 19:05:00,
2013-05-17 15:10:00,65.4,42.3,30.07,NE,44,0.0,6.0,43,0.00,,---,0.00,VWS V13.00,2013-05-17 19:10:00,
2013-05-17 15:15:00,65.8,42.1,30.07,NNE,18,0.0,8.0,42,0.00,,---,0.00,VWS V13.00,2013-05-17 19:15:00,
2013-05-17 15:20:00,66.3,41.9,30.07,NNE,28,1.0,8.0,41,0.00,,---,0.00,VWS V13.00,2013-05-17 19:20:00,
2013-05-17 15:25:00,65.9,42.2,30.07,NW,306,2.0,8.0,42,0.00,,---,0.00,VWS V13.00,2013-05-17 19:25:00,
2013-05-17 15:30:00,65.9,41.6,30.07,North,349,1.0,8.0,41,0.00,,---,0.00,VWS V13.00,2013-05-17 19:30:00,
2013-05-17 15:35:00,66.0,42.9,30.07,NW,325,0.0,8.0,43,0.00,,---,0.00,VWS V13.00,2013-05-17 19:35:00,
2013-05-17 15:40:00,66.1,41.7,30.07,NW,321,0.0,9.0,41,0.00,,---,0.00,VWS V13.00,2013-05-17 19:40:00,
2013-05-17 15:45:00,66.1,42.4,30.07,NNW,329,0.0,13.0,42,0.00,,---,0.00,VWS V13.00,2013-05-17 19:45:00,
2013-05-17 15:50:00,66.1,41.7,30.07,NW,326,0.0,13.0,41,0.00,,---,0.00,VWS V13.00,2013-05-17 19:50:00,
2013-05-17 15:55:00,66.3,41.9,30.07,North,350,7.0,13.0,41,0.00,,---,0.00,VWS V13.00,2013-05-17 19:55:00,
2013-05-17 16:00:00,66.4,42.6,30.07,NE,44,1.0,13.0,42,0.00,,---,0.00,VWS V13.00,2013-05-17 20:00:00,
2013-05-17 16:05:00,66.1,42.4,30.07,North,9,0.0,13.0,42,0.00,,---,0.00,VWS V13.00,2013-05-17 20:05:00,
2013-05-17 16:10:00,65.6,41.3,30.08,North,9,2.0,8.0,41,0.00,,---,0.00,VWS V13.00,2013-05-17 20:10:00,
2013-05-17 16:15:00,65.5,41.2,30.08,NW,307,0.0,8.0,41,0.00,,---,0.00,VWS V13.00,2013-05-17 20:15:00,
2013-05-17 16:20:00,65.7,40.7,30.08,North,355,4.0,15.0,40,0.00,,---,0.00,VWS V13.00,2013-05-17 20:20:00,
2013-05-17 16:25:00,65.4,41.1,30.09,NW,318,2.0,15.0,41,0.00,,---,0.00,VWS V13.00,2013-05-17 20:25:00,
2013-05-17 16:30:00,65.0,42.0,30.09,NW,309,0.0,15.0,43,0.00,,---,0.00,VWS V13.00,2013-05-17 20:30:00,
2013-05-17 16:35:00,64.8,41.2,30.09,East,87,1.0,15.0,42,0.00,,---,0.00,VWS V13.00,2013-05-17 20:35:00,
2013-05-17 16:40:00,64.4,40.2,30.09,NNW,336,0.0,6.0,41,0.00,,---,0.00,VWS V13.00,2013-05-17 20:40:00,
2013-05-17 16:45:00,64.4,40.8,30.09,North,350,2.0,6.0,42,0.00,,---,0.00,VWS V13.00,2013-05-17 20:45:00,
2013-05-17 16:50:00,64.6,40.4,30.09,West,267,1.0,10.0,41,0.00,,---,0.00,VWS V13.00,2013-05-17 20:50:00,
2013-05-17 16:55:00,64.8,39.9,30.09,NNW,328,0.0,10.0,40,0.00,,---,0.00,VWS V13.00,2013-05-17 20:55:00,
2013-05-17 17:00:00,65.2,40.3,30.09,WNW,288,3.0,10.0,40,0.00,,---,0.00,VWS V13.00,2013-05-17 21:00:00,
2013-05-17 17:05:00,65.4,41.1,30.10,West,273,0.0,10.0,41,0.00,,---,0.00,VWS V13.00,2013-05-17 21:05:00,
2013-05-17 17:10:00,65.4,39.8,30.10,NW,312,1.0,12.0,39,0.00,,---,0.00,VWS V13.00,2013-05-17 21:10:00,
2013-05-17 17:15:00,65.4,38.5,30.11,NW,311,5.0,12.0,37,0.00,,---,0.00,VWS V13.00,2013-05-17 21:15:00,
2013-05-17 17:20:00,65.1,38.9,30.11,North,355,4.0,13.0,38,0.00,,---,0.00,VWS V13.00,2013-05-17 21:20:00,
2013-05-17 17:25:00,65.0,39.5,30.11,WNW,287,4.0,13.0,39,0.00,,---,0.00,VWS V13.00,2013-05-17 21:25:00,
2013-05-17 17:30:00,64.9,39.4,30.11,NNW,341,3.0,13.0,39,0.00,,---,0.00,VWS V13.00,2013-05-17 21:30:00,
2013-05-17 17:35:00,65.1,40.2,30.11,NNW,346,1.0,13.0,40,0.00,,---,0.00,VWS V13.00,2013-05-17 21:35:00,
2013-05-17 17:40:00,65.2,39.6,30.11,NW,319,4.0,8.0,39,0.00,,---,0.00,VWS V13.00,2013-05-17 21:40:00,
2013-05-17 17:45:00,64.8,39.9,30.11,NW,326,0.0,8.0,40,0.00,,---,0.00,VWS V13.00,2013-05-17 21:45:00,
2013-05-17 17:50:00,64.4,39.6,30.12,NW,323,2.0,8.0,40,0.00,,---,0.00,VWS V13.00,2013-05-17 21:50:00,
2013-05-17 17:55:00,64.0,39.8,30.12,NW,325,3.0,8.0,41,0.00,,---,0.00,VWS V13.00,2013-05-17 21:55:00,
2013-05-17 18:00:00,63.7,41.4,30.12,NW,320,0.0,8.0,44,0.00,,---,0.00,VWS V13.00,2013-05-17 22:00:00,
2013-05-17 18:05:00,63.4,40.5,30.12,NW,319,2.0,8.0,43,0.00,,---,0.00,VWS V13.00,2013-05-17 22:05:00,
2013-05-17 18:10:00,63.2,40.3,30.12,NW,320,0.0,4.0,43,0.00,,---,0.00,VWS V13.00,2013-05-17 22:10:00,
2013-05-17 18:15:00,63.0,40.8,30.12,NW,325,0.0,4.0,44,0.00,,---,0.00,VWS V13.00,2013-05-17 22:15:00,
2013-05-17 18:20:00,62.8,41.2,30.12,North,5,0.0,6.0,45,0.00,,---,0.00,VWS V13.00,2013-05-17 22:20:00,
2013-05-17 18:25:00,62.5,41.5,30.13,North,355,0.0,6.0,46,0.00,,---,0.00,VWS V13.00,2013-05-17 22:25:00,
2013-05-17 18:30:00,62.3,42.4,30.13,North,355,0.0,6.0,48,0.00,,---,0.00,VWS V13.00,2013-05-17 22:30:00,
2013-05-17 18:34:00,62.0,41.6,30.13,NW,309,0.0,6.0,47,0.00,,---,0.00,VWS V13.00,2013-05-17 22:34:00,
2013-05-17 18:39:00,61.9,42.0,30.14,NW,309,0.0,2.0,48,0.00,,---,0.00,VWS V13.00,2013-05-17 22:39:00,
2013-05-17 18:44:00,61.7,42.4,30.14,NW,309,1.0,6.0,49,0.00,,---,0.00,VWS V13.00,2013-05-17 22:44:00,
2013-05-17 18:49:00,61.5,40.5,30.14,NW,319,0.0,6.0,46,0.00,,---,0.00,VWS V13.00,2013-05-17 22:49:00,
2013-05-17 18:54:00,61.3,40.9,30.14,North,349,2.0,6.0,47,0.00,,---,0.00,VWS V13.00,2013-05-17 22:54:00,
2013-05-17 18:59:00,61.1,40.7,30.15,NNW,348,0.0,6.0,47,0.00,,---,0.00,VWS V13.00,2013-05-17 22:59:00,
2013-05-17 19:04:00,60.9,41.1,30.15,NNW,331,2.0,6.0,48,0.00,,---,0.00,VWS V13.00,2013-05-17 23:04:00,
2013-05-17 19:09:00,60.7,42.0,30.15,NW,321,0.0,2.0,50,0.00,,---,0.00,VWS V13.00,2013-05-17 23:09:00,
2013-05-17 19:14:00,60.5,41.3,30.15,NW,319,0.0,5.0,49,0.00,,---,0.00,VWS V13.00,2013-05-17 23:14:00,
2013-05-17 19:19:00,60.2,41.0,30.15,NW,319,0.0,5.0,49,0.00,,---,0.00,VWS V13.00,2013-05-17 23:19:00,
2013-05-17 19:24:00,59.9,41.8,30.15,NW,319,0.0,5.0,51,0.00,,---,0.00,VWS V13.00,2013-05-17 23:24:00,
2013-05-17 19:29:00,59.6,41.5,30.15,NW,319,0.0,5.0,51,0.00,,---,0.00,VWS V13.00,2013-05-17 23:29:00,
2013-05-17 19:34:00,59.3,41.2,30.15,NW,319,0.0,5.0,51,0.00,,---,0.00,VWS V13.00,2013-05-17 23:34:00,
2013-05-17 19:39:00,59.0,40.9,30.16,NW,319,0.0,0.0,51,0.00,,---,0.00,VWS V13.00,2013-05-17 23:39:00,
2013-05-17 19:44:00,58.9,40.8,30.16,NW,319,0.0,1.0,51,0.00,,---,0.00,VWS V13.00,2013-05-17 23:44:00,
2013-05-17 19:49:00,58.5,41.0,30.16,NW,319,0.0,1.0,52,0.00,,---,0.00,VWS V13.00,2013-05-17 23:49:00,
2013-05-17 19:54:00,58.1,41.1,30.16,NW,319,0.0,1.0,53,0.00,,---,0.00,VWS V13.00,2013-05-17 23:54:00,
2013-05-17 19:59:00,57.9,41.8,30.16,NW,319,0.0,1.0,55,0.00,,---,0.00,VWS V13.00,2013-05-17 23:59:00,
2013-05-17 20:04:00,57.7,41.2,30.16,NW,319,0.0,1.0,54,0.00,,---,0.00,VWS V13.00,2013-05-18 00:04:00,
2013-05-17 20:09:00,57.4,40.9,30.16,NW,319,0.0,0.0,54,0.00,,---,0.00,VWS V13.00,2013-05-18 00:09:00,
2013-05-17 20:14:00,57.2,41.7,30.16,NW,319,0.0,1.0,56,0.00,,---,0.00,VWS V13.00,2013-05-18 00:14:00,
2013-05-17 20:19:00,56.9,40.4,30.17,NW,319,0.0,1.0,54,0.00,,---,0.00,VWS V13.00,2013-05-18 00:19:00,
2013-05-17 20:24:00,56.7,40.3,30.17,NW,319,0.0,1.0,54,0.00,,---,0.00,VWS V13.00,2013-05-18 00:24:00,
2013-05-17 20:29:00,56.4,40.5,30.18,NW,319,0.0,1.0,55,0.00,,---,0.00,VWS V13.00,2013-05-18 00:29:00,
2013-05-17 20:34:00,56.2,40.3,30.18,NW,319,0.0,1.0,55,0.00,,---,0.00,VWS V13.00,2013-05-18 00:34:00,
2013-05-17 20:39:00,55.9,40.5,30.18,NW,319,0.0,0.0,56,0.00,,---,0.00,VWS V13.00,2013-05-18 00:39:00,
2013-05-17 20:44:00,55.7,40.3,30.18,NW,319,0.0,0.0,56,0.00,,---,0.00,VWS V13.00,2013-05-18 00:44:00,
2013-05-17 20:49:00,55.4,40.4,30.18,NW,319,0.0,0.0,57,0.00,,---,0.00,VWS V13.00,2013-05-18 00:49:00,
2013-05-17 20:54:00,55.1,40.6,30.18,NW,319,0.0,0.0,58,0.00,,---,0.00,VWS V13.00,2013-05-18 00:54:00,
2013-05-17 20:59:00,54.8,40.3,30.19,NW,319,0.0,0.0,58,0.00,,---,0.00,VWS V13.00,2013-05-18 00:59:00,
2013-05-17 21:04:00,54.6,40.6,30.19,NW,319,0.0,0.0,59,0.00,,---,0.00,VWS V13.00,2013-05-18 01:04:00,
2013-05-17 21:09:00,54.4,40.8,30.19,NW,319,0.0,0.0,60,0.00,,---,0.00,VWS V13.00,2013-05-18 01:09:00,
2013-05-17 21:14:00,54.2,40.6,30.20,NW,319,0.0,0.0,60,0.00,,---,0.00,VWS V13.00,2013-05-18 01:14:00,
2013-05-17 21:19:00,54.1,40.5,30.20,NW,319,0.0,0.0,60,0.00,,---,0.00,VWS V13.00,2013-05-18 01:19:00,
2013-05-17 21:24:00,54.0,40.4,30.20,NW,319,0.0,0.0,60,0.00,,---,0.00,VWS V13.00,2013-05-18 01:24:00,
2013-05-17 21:29:00,53.9,40.8,30.20,NW,319,0.0,0.0,61,0.00,,---,0.00,VWS V13.00,2013-05-18 01:29:00,
2013-05-17 21:34:00,53.9,40.8,30.21,NW,319,0.0,0.0,61,0.00,,---,0.00,VWS V13.00,2013-05-18 01:34:00,
2013-05-17 21:39:00,53.8,40.7,30.21,NW,319,0.0,0.0,61,0.00,,---,0.00,VWS V13.00,2013-05-18 01:39:00,
2013-05-17 21:44:00,53.7,40.6,30.21,NW,319,0.0,0.0,61,0.00,,---,0.00,VWS V13.00,2013-05-18 01:44:00,
2013-05-17 21:49:00,53.6,40.1,30.21,NW,319,0.0,0.0,60,0.00,,---,0.00,VWS V13.00,2013-05-18 01:49:00,
2013-05-17 21:54:00,53.6,40.9,30.22,NW,319,0.0,0.0,62,0.00,,---,0.00,VWS V13.00,2013-05-18 01:54:00,
2013-05-17 21:59:00,53.5,40.4,30.22,NW,319,0.0,0.0,61,0.00,,---,0.00,VWS V13.00,2013-05-18 01:59:00,
2013-05-17 22:04:00,53.4,40.3,30.22,NW,319,0.0,0.0,61,0.00,,---,0.00,VWS V13.00,2013-05-18 02:04:00,
2013-05-17 22:09:00,53.4,40.3,30.22,NW,319,0.0,0.0,61,0.00,,---,0.00,VWS V13.00,2013-05-18 02:09:00,
2013-05-17 22:14:00,53.3,40.2,30.22,NW,319,0.0,0.0,61,0.00,,---,0.00,VWS V13.00,2013-05-18 02:14:00,
2013-05-17 22:19:00,53.3,40.2,30.22,NW,319,0.0,0.0,61,0.00,,---,0.00,VWS V13.00,2013-05-18 02:19:00,
2013-05-17 22:24:00,53.4,40.3,30.22,NW,319,0.0,0.0,61,0.00,,---,0.00,VWS V13.00,2013-05-18 02:24:00,
2013-05-17 22:29:00,53.4,40.3,30.22,NW,319,0.0,0.0,61,0.00,,---,0.00,VWS V13.00,2013-05-18 02:29:00,
2013-05-17 22:34:00,53.4,40.3,30.22,NW,319,0.0,0.0,61,0.00,,---,0.00,VWS V13.00,2013-05-18 02:34:00,
2013-05-17 22:39:00,53.5,40.4,30.22,NW,319,0.0,0.0,61,0.00,,---,0.00,VWS V13.00,2013-05-18 02:39:00,
2013-05-17 22:44:00,53.5,40.4,30.22,NW,319,0.0,0.0,61,0.00,,---,0.00,VWS V13.00,2013-05-18 02:44:00,
2013-05-17 22:49:00,53.5,40.4,30.22,NW,319,0.0,1.0,61,0.00,,---,0.00,VWS V13.00,2013-05-18 02:49:00,
2013-05-17 22:54:00,53.6,40.5,30.22,NW,319,0.0,1.0,61,0.00,,---,0.00,VWS V13.00,2013-05-18 02:54:00,
2013-05-17 22:59:00,53.6,40.5,30.22,NW,319,0.0,1.0,61,0.00,,---,0.00,VWS V13.00,2013-05-18 02:59:00,
2013-05-17 23:04:00,53.5,40.4,30.22,NW,319,0.0,1.0,61,0.00,,---,0.00,VWS V13.00,2013-05-18 03:04:00,
2013-05-17 23:09:00,53.5,40.0,30.22,NW,319,0.0,1.0,60,0.00,,---,0.00,VWS V13.00,2013-05-18 03:09:00,
2013-05-17 23:14:00,53.4,40.3,30.22,NW,319,0.0,1.0,61,0.00,,---,0.00,VWS V13.00,2013-05-18 03:14:00,
2013-05-17 23:19:00,53.4,40.3,30.22,NW,319,0.0,1.0,61,0.00,,---,0.00,VWS V13.00,2013-05-18 03:19:00,
2013-05-17 23:24:00,53.3,40.2,30.22,NW,319,0.0,1.0,61,0.00,,---,0.00,VWS V13.00,2013-05-18 03:24:00,
2013-05-17 23:29:00,53.2,40.1,30.22,NW,319,0.0,1.0,61,0.00,,---,0.00,VWS V13.00,2013-05-18 03:29:00,
2013-05-17 23:34:00,53.2,40.1,30.23,NW,319,0.0,1.0,61,0.00,,---,0.00,VWS V13.00,2013-05-18 03:34:00,
2013-05-17 23:39:00,53.2,40.1,30.23,NW,319,0.0,0.0,61,0.00,,---,0.00,VWS V13.00,2013-05-18 03:39:00,
2013-05-17 23:44:00,53.1,40.0,30.23,NW,319,0.0,1.0,61,0.00,,---,0.00,VWS V13.00,2013-05-18 03:44:00,
2013-05-17 23:49:00,53.1,40.4,30.23,NW,319,0.0,1.0,62,0.00,,---,0.00,VWS V13.00,2013-05-18 03:49:00,
2013-05-17 23:54:00,53.1,40.4,30.23,NW,319,0.0,1.0,62,0.00,,---,0.00,VWS V13.00,2013-05-18 03:54:00,
2013-05-17 23:59:00,53.1,40.4,30.23,NW,319,0.0,1.0,62,0.00,,---,0.00,VWS V13.00,2013-05-18 03:59:00,